sat.trackr.live / text

‹ back to catalog

STARLINK-30370

NORAD 57751 · 2023-131V

PAYLOAD ACTIVE UNKNOWN

§ Identity

Operator
Country
US
Launch date
2023-09-01
Launch site
AFETR
Launch vehicle
Mass (kg)
RCS (m²)

Purposes: comms

External: N2YO · Heavens-Above · Gunter

§ Orbital elements

Epoch: 2026-09-20T22:00:03.000096Z

Period
94.27 min
Inclination
42.9994°
Eccentricity
0.0001298
Mean motion
15.27577892 rev/d
Perigee alt
482.2 km
Apogee alt
483.9 km
Semi-major
6,861.2 km
B*
-4.0662e-5
RAAN
128.6223°
Arg perigee
264.0473°
Mean anomaly
81.0676°
Rev number
572

§ Raw data

STARLINK-303701 57751U 23131V   26263.91670139 -.00001381  00000+0 -40662-4 0  99962 57751  42.9994 128.6223 0001298 264.0473  81.0676 15.27577892  5729

JSON: /api/v1/satellites/57751 · /tle

For live sub-satellite position, see the globe view (requires WebGL).

§ Visibility from observer

Set your observer location to see the next 7 days of passes ≥ 10°. The values pass through the URL so the page stays shareable.

No JS? Fill the form by hand. The geolocation button needs JavaScript.